Location: American Medical Response
(33.3472°N, 96.5511°W)
Time: 12:39:28
(UTC+00:00)

CZ-4B R/B - Pass Details

Date: 08 December 2021
Orbit: 482 x 652 km, 97.9° (Epoch: 28 January)

Event Time Altitude Azimuth Distance (km) Brightness Sun altitude
Rises 12:06:21 0° 16° (NNE) 2,554 6.2 -14.6°
Reaches altitude 10° 12:08:25 10° 19° (NNE) 1,678 5.3 -14.2°
Maximum altitude 12:11:58 62° 101° (ESE) 562 3.1 -13.5°
Drops below altitude 10° 12:15:37 10° 183° (S) 1,720 5.6 -12.8°
Sets 12:17:45 0° 186° (S) 2,626 6.5 -12.4°
